Location: Dackenheim
(49.5215°N, 8.1854°E)
Time: 02:40:57
(UTC+00:00)

UWE-3 - Pass Details

Date: 21 March 2026
Orbit: 543 x 612 km, 97.9° (Epoch: 12 April)

Event Time Altitude Azimuth Distance (km) Brightness Sun altitude
Rises 01:16:07 0° 27° (NNE) 2,874 ? -35.7°
Reaches altitude 10° 01:18:53 10° 46° (NE) 1,954 ? -35.5°
Enters shadow 01:20:12 15° 61° (ENE) 1,636 ? -35.4°
